Showing default

COSMOS 2509, 40922

Orbit data source: Space-Track

COSMOS 2509, 40922 is a payload satellite owned by VVKO VKS (CIS) in LEO that was launched on Wed, 23 Sep 2015 UTC via an ROKOT launch vehicle from the Plesetsk Missile And Space Complex (PKMTR). Payload-class satellites include a variety of spacecraft equipped with specific instruments for various scientific and technological missions. These include communications satellites like Starlink; space stations such as the ISS; scientific satellites like the Hubble; Earth observation satellites from companies like Planet Labs, Umbra, and HawkEye 360; GPS; miniature CubeSats for education and research; and military/defense satellites.

Loading next visibility...
Identifier
40922, 2015-050C
Orbit
LEO
Country
Flag of CISCIS
Related business
Manufacturer
Resehetnev ISS
Mission
Operational Defense Communications
Bus & Motor
STRELA-3M, Unknown motor
Mass
280 kg wet, 280 kg dry
Launch date (UTC)
2015-09-23 (10 years ago)
Launch vehicle
ROKOT
Launch site
Plesetsk Missile And Space Complex (PKMTR)
Object type
Payload
Rocket body
Debris
Shape & HBR
Cyl + 1 Ant, 3.5 m
Radar Cross Section
1.583 m², Large (>1 m²)

Expand to show TLE details & history
Last TLE update: 22 hours ago

TLE from 22 hours ago
0 COSMOS 2509
1 40922U 15050C   25260.24720534  .00000038  00000-0  20347-3 0  9990
2 40922  82.4835 248.2573 0013018 280.0309  79.9302 12.42922479452974
Epoch: 2025-09-17T05:55Z
TLE epoch observation values (Epoch: 2025-09-17T05:55:58.541Z)
Latitude
0.00003°
Longitude
162.83749°
Altitude
1,495.159 km
Speed
7.117 km/s
True Right ascension
16h 33m 01s
True Declination
0° 00' 00"
Sunlit
Object was in daylight at epoch
Visualization orbit readout
Latitude
Unknown
Longitude
Unknown
Altitude
Unknown
Speed
Unknown
Apparent Right ascension
Unknown
Apparent Declination
Unknown
Sunlit
N/A
Visualization observer readout
Local Sidereal Time
21:07:19
Azimuth
Unknown
Elevation
Unknown
Doppler factor
Unknown
Orbital elements
Apogee altitude
1,501.835 km
Perigee altitude
1,481.346 km
Semi-major axis
7,869.728 km
Eccentricity
0.0013
Inclination
82.4835°
RAAN
248.2573°
Arg. of periapsis
280.0309°
True anomaly
80.07712°
Mean anomaly
79.9302°
Eccentric anomaly
80.00366°
Mean motion
3.10888 °/min
Orbital period
115.8 mins
BSTAR
0.00020347
Loading maneuver chart data...
Computing Atmospheric mass density...
Loading historical data...
Loading historical data...
Loading historical data...
Loading historical data...
Loading historical data...
Loading historical data...
Loading historical data...
Other satellites on launch #50 in the year 2015 (2015-09-23 UTC)

Documentation

Showing up to 5 results
|